Home > Weather > Schmallenberg > Past weeks

Flag for Germany Past Weather in Schmallenberg, North Rhine-Westphalia, Germany — Yesterday and Last 2 Weeks

Now
52 °F

Passing clouds.


Feels Like: 52 °F
Forecast: 47 / 74 °F
Wind: 2 mph from Southwest

Location: Paderborn / Lippstadt

Current Time: Aug 30, 2016 at 5:13:50 AM

Latest Report: Aug 30, 2016 at 4:50 AM


Visibility: N/A

Pressure: 30.27 "Hg

Humidity: 94%

Dew Point: 50 °F

Location of SchmallenbergLocation

Past Weather in Schmallenberg — Graph

°F

Schmallenberg Temperature Yesterday

Maximum temperature yesterday: 68 °F (at 4:20 PM)
Minimum temperature yesterday: 57 °F (at 5:50 AM)
Average temperature yesterday: 63 °F

High & Low Weather Summary for the Past Weeks

 TemperatureHumidityPressure
High91 °F (Aug 25, 4:20 PM)100% (Aug 27, 5:20 AM)30.36 "Hg (Aug 27, 5:20 AM)
Low46 °F (Aug 16, 6:50 AM)17% (Aug 25, 4:50 PM)29.80 "Hg (Aug 18, 3:50 PM)
Average68 °F63%30.06 "Hg
* Reported Aug 15 3:20 AM — Aug 30 3:20 AM, Schmallenberg, Weather by CustomWeather, © 2016

Note: Actual official high and low records may vary slightly from our data, if they occured in-between our weather recording intervals... More about our weather records

Advertising

Schmallenberg Weather History for the Previous 24 Hours

Scroll right to see more
 ConditionsComfort  
Time TempWeatherWind HumidityBarometerVisibility
3:20 AM
Tue, Aug 30
54 °FPassing clouds.2 mph88%30.27 "HgN/A
2:50 AM55 °FClear.2 mph88%30.27 "Hg10 mi
2:20 AM55 °FPassing clouds.1 mph88%30.24 "HgN/A
1:50 AM57 °FPassing clouds.2 mph88%30.24 "HgN/A
1:20 AM57 °FPassing clouds.1 mph82%30.27 "HgN/A
12:50 AM57 °FPassing clouds.2 mph88%30.24 "HgN/A
12:20 AM59 °FPassing clouds.1 mph82%30.24 "HgN/A
11:50 PM
Mon, Aug 29
61 °FPassing clouds.3 mph77%30.24 "HgN/A
11:20 PM61 °FPassing clouds.2 mph77%30.24 "HgN/A
10:50 PM63 °FPassing clouds.6 mph73%30.21 "HgN/A
10:20 PM63 °FPassing clouds.2 mph73%30.21 "HgN/A
9:50 PM63 °FPassing clouds.1 mph73%30.21 "HgN/A
9:20 PM63 °FPassing clouds.2 mph73%30.18 "HgN/A
8:50 PM63 °FScattered clouds.2 mph73%30.18 "HgN/A
8:20 PM64 °FScattered clouds.5 mph68%30.15 "HgN/A
7:50 PM64 °FScattered clouds.5 mph68%30.15 "HgN/A
7:20 PM66 °FScattered clouds.6 mph64%30.15 "HgN/A
6:50 PM66 °FPartly sunny.6 mph64%30.15 "HgN/A
6:20 PM68 °FBroken clouds.8 mph60%30.12 "HgN/A
5:50 PM68 °FBroken clouds.5 mph64%30.12 "HgN/A
5:20 PM66 °FBroken clouds.6 mph73%30.12 "HgN/A
4:50 PM68 °FBroken clouds.6 mph64%30.12 "HgN/A
4:20 PM68 °FBroken clouds.7 mph69%30.12 "HgN/A
3:50 PM66 °FBroken clouds.7 mph73%30.12 "HgN/A
3:20 PM66 °FBroken clouds.5 mph73%30.12 "HgN/A
2:50 PM66 °FBroken clouds.8 mph73%30.12 "HgN/A
2:20 PM64 °FBroken clouds.8 mph78%30.09 "HgN/A
1:50 PM64 °FBroken clouds.7 mph78%30.09 "HgN/A
1:20 PM64 °FBroken clouds.8 mph83%30.09 "Hg6 mi
12:50 PM63 °FBroken clouds.8 mph88%30.09 "Hg6 mi
12:20 PM63 °FBroken clouds.9 mph88%30.09 "Hg5 mi
11:50 AM63 °FBroken clouds.7 mph88%30.09 "Hg4 mi
11:20 AM61 °FLight rain. Fog.7 mph94%30.09 "Hg2 mi
10:50 AM61 °FLight rain. Fog.9 mph94%30.07 "Hg2 mi
10:20 AM61 °FRain. Broken clouds.8 mph88%30.07 "Hg2 mi
9:50 AM61 °FDrizzle. Partly sunny.8 mph88%30.07 "Hg6 mi
9:20 AM63 °FScattered showers. Broken clouds.12 mph77%30.04 "Hg4 mi
8:50 AM63 °FSunny.13 mph77%30.04 "Hg10 mi
8:20 AM63 °FSunny.10 mph77%30.04 "Hg10 mi
7:50 AM61 °FScattered clouds.14 mph83%30.04 "HgN/A
7:20 AM61 °FPassing clouds.8 mph77%30.04 "HgN/A
6:50 AM59 °FPassing clouds.7 mph82%30.01 "HgN/A
6:20 AM59 °FClear.9 mph82%30.01 "Hg10 mi
5:50 AM57 °FClear.7 mph88%30.01 "Hg10 mi
5:20 AM59 °FClear.9 mph82%30.01 "Hg10 mi
Weather by CustomWeather, © 2016

See weather overviewHow to use our weather pages